When you browse on this site, cookies collect data to enhance your experience and personalize the content and advertising you see.
Visit our Privacy Policy to learn more. By continuing to use the site, you agree to this use of cookies and data.
  • In Hungary
  • List of Countries
  • For 7 days
  • Water Temperature
  • Weather Map
  • News
  • Weather Widgets
  • user-avatar
    Login

    Hourly Weather Khyl'ky

    Today, 29 March, Sunday

    Time Temperature Precipitation Wind Pressure Humidity
    00:00 +9°C° 0 mm 1 mps 738 mmHg 58%
    01:00 +8°C° 0 mm 1 mps 738 mmHg 60%
    02:00 +8°C° 0 mm 1 mps 737 mmHg 59%
    03:00 +8°C° 0 mm 1 mps 737 mmHg 61%
    04:00 +8°C° 0 mm 1 mps 737 mmHg 63%
    05:00 +8°C° 0 mm 1 mps 736 mmHg 64%
    06:00 +8°C° 0 mm 1 mps 736 mmHg 63%
    07:00 +9°C° 0 mm 1 mps 736 mmHg 61%
    08:00 +10°C° 0 mm 1 mps 735 mmHg 60%
    09:00 +11°C° 0 mm 1 mps 735 mmHg 55%
    10:00 +13°C° 0 mm 1 mps 735 mmHg 50%
    11:00 +14°C° 0 mm 1 mps 735 mmHg 45%
    12:00 +15°C° 0 mm 1 mps 735 mmHg 43%
    13:00 +16°C° 0 mm 1 mps 735 mmHg 41%
    14:00 +16°C° 0 mm 1 mps 734 mmHg 39%
    15:00 +16°C° 0 mm 2 mps 734 mmHg 41%
    16:00 +16°C° 0 mm 2 mps 734 mmHg 42%
    17:00 +16°C° 0 mm 2 mps 734 mmHg 44%
    18:00 +14°C° 0 mm 2 mps 734 mmHg 49%
    19:00 +13°C° 0 mm 2 mps 734 mmHg 53%
    20:00 +10°C° 0 mm 2 mps 734 mmHg 58%
    21:00 +11°C° 0 mm 1 mps 734 mmHg 60%
    22:00 +10°C° 0 mm 1 mps 734 mmHg 62%
    23:00 +10°C° 0 mm 1 mps 733 mmHg 63%

    Tomorrow, 30 March, Monday

    Time Temperature Precipitation Wind Pressure Humidity
    00:00 +10°C° 0 mm 1 mps 733 mmHg 66%
    01:00 +8°C° 0 mm 2 mps 733 mmHg 68%
    02:00 +8°C° 0 mm 3 mps 733 mmHg 70%
    03:00 +8°C° 0 mm 3 mps 734 mmHg 72%
    04:00 +8°C° 0 mm 3 mps 734 mmHg 73%
    05:00 +7°C° 0 mm 3 mps 734 mmHg 74%
    06:00 +7°C° 0 mm 4 mps 734 mmHg 76%
    07:00 +7°C° 0 mm 4 mps 735 mmHg 78%
    08:00 +7°C° 0 mm 5 mps 735 mmHg 79%
    09:00 +8°C° 0 mm 5 mps 735 mmHg 77%
    10:00 +8°C° 0 mm 5 mps 736 mmHg 75%
    11:00 +9°C° 0 mm 5 mps 736 mmHg 72%
    12:00 +9°C° 0 mm 5 mps 736 mmHg 69%
    13:00 +8°C° 0 mm 5 mps 737 mmHg 66%
    14:00 +8°C° 0 mm 5 mps 737 mmHg 63%
    15:00 +8°C° 0 mm 5 mps 737 mmHg 64%
    16:00 +7°C° 0 mm 5 mps 738 mmHg 65%
    17:00 +7°C° 0 mm 6 mps 738 mmHg 67%
    18:00 +4°C° 0 mm 6 mps 739 mmHg 68%
    19:00 +3°C° 0 mm 6 mps 740 mmHg 69%
    20:00 +2°C° 0 mm 6 mps 740 mmHg 69%
    21:00 +2°C° 0 mm 6 mps 741 mmHg 69%
    22:00 +1°C° 0 mm 6 mps 741 mmHg 68%
    23:00 -1°C° 0 mm 6 mps 741 mmHg 67%

    Day after tomorrow, 31 March, Tuesday

    Time Temperature Precipitation Wind Pressure Humidity
    00:00 0°C° 0 mm 5 mps 742 mmHg 70%
    01:00 -1°C° 0 mm 5 mps 742 mmHg 72%
    02:00 -2°C° 0 mm 5 mps 742 mmHg 75%
    03:00 -2°C° 0 mm 5 mps 743 mmHg 75%
    04:00 -2°C° 0 mm 5 mps 743 mmHg 74%
    05:00 -4°C° 0 mm 5 mps 743 mmHg 74%
    06:00 -2°C° 0 mm 5 mps 744 mmHg 73%
    07:00 -2°C° 0 mm 5 mps 744 mmHg 72%
    08:00 -2°C° 0 mm 5 mps 744 mmHg 71%
    09:00 -1°C° 0 mm 5 mps 745 mmHg 65%
    10:00 0°C° 0 mm 5 mps 745 mmHg 59%
    11:00 +1°C° 0 mm 5 mps 745 mmHg 54%
    12:00 +1°C° 0 mm 5 mps 745 mmHg 52%
    13:00 +1°C° 0 mm 5 mps 746 mmHg 50%
    14:00 +2°C° 0 mm 5 mps 746 mmHg 49%
    15:00 +2°C° 0 mm 5 mps 746 mmHg 46%
    16:00 +3°C° 0 mm 4 mps 746 mmHg 44%
    17:00 +3°C° 0 mm 4 mps 745 mmHg 42%
    18:00 +1°C° 0 mm 4 mps 746 mmHg 43%
    19:00 0°C° 0 mm 4 mps 746 mmHg 44%
    20:00 +1°C° 0 mm 3 mps 747 mmHg 46%
    21:00 0°C° 0 mm 3 mps 747 mmHg 49%
    22:00 -1°C° 0 mm 3 mps 747 mmHg 52%
    23:00 -1°C° 0 mm 3 mps 747 mmHg 55%

    1 April, Wednesday

    Time Temperature Precipitation Wind Pressure Humidity
    00:00 -2°C° 0 mm 3 mps 747 mmHg 55%
    01:00 -2°C° 0 mm 3 mps 748 mmHg 55%
    02:00 -3°C° 0 mm 2 mps 748 mmHg 56%
    03:00 -3°C° 0 mm 2 mps 748 mmHg 55%
    04:00 -3°C° 0 mm 2 mps 747 mmHg 53%
    05:00 -1°C° 0 mm 1 mps 747 mmHg 52%
    06:00 0°C° 0 mm 1 mps 748 mmHg 46%
    07:00 -1°C° 0 mm 2 mps 748 mmHg 41%
    08:00 +1°C° 0 mm 2 mps 748 mmHg 35%
    09:00 +2°C° 0 mm 2 mps 748 mmHg 33%
    10:00 +3°C° 0 mm 2 mps 747 mmHg 30%
    11:00 +3°C° 0 mm 3 mps 747 mmHg 28%
    12:00 +4°C° 0 mm 2 mps 747 mmHg 27%
    13:00 +5°C° 0 mm 2 mps 746 mmHg 25%
    14:00 +5°C° 0 mm 2 mps 746 mmHg 24%
    15:00 +5°C° 0 mm 2 mps 745 mmHg 24%
    16:00 +6°C° 0 mm 1 mps 745 mmHg 24%
    17:00 +6°C° 0 mm 1 mps 744 mmHg 24%
    18:00 +5°C° 0 mm 1 mps 744 mmHg 27%
    19:00 +4°C° 0 mm 1 mps 744 mmHg 31%
    20:00 +2°C° 0 mm 2 mps 745 mmHg 34%
    21:00 +1°C° 0 mm 2 mps 744 mmHg 35%
    22:00 +1°C° 0 mm 2 mps 744 mmHg 36%
    23:00 0°C° 0 mm 3 mps 744 mmHg 38%

    2 April, Thursday

    Time Temperature Precipitation Wind Pressure Humidity
    00:00 -1°C° 0 mm 3 mps 744 mmHg 39%
    01:00 -1°C° 0 mm 3 mps 744 mmHg 41%
    02:00 -2°C° 0 mm 3 mps 743 mmHg 42%
    03:00 -2°C° 0 mm 3 mps 743 mmHg 43%
    04:00 -2°C° 0 mm 3 mps 743 mmHg 44%
    05:00 -2°C° 0 mm 3 mps 743 mmHg 45%
    06:00 -1°C° 0 mm 3 mps 743 mmHg 43%
    07:00 0°C° 0 mm 4 mps 743 mmHg 40%
    08:00 +1°C° 0 mm 4 mps 743 mmHg 37%
    09:00 +3°C° 0 mm 4 mps 743 mmHg 36%
    10:00 +5°C° 0 mm 4 mps 742 mmHg 35%
    11:00 +6°C° 0 mm 4 mps 742 mmHg 34%
    12:00 +7°C° 0 mm 4 mps 742 mmHg 34%
    13:00 +7°C° 0 mm 5 mps 742 mmHg 34%
    14:00 +8°C° 0 mm 5 mps 741 mmHg 34%
    15:00 +8°C° 0 mm 4 mps 741 mmHg 35%
    16:00 +8°C° 0 mm 4 mps 741 mmHg 37%
    17:00 +7°C° 0 mm 4 mps 740 mmHg 39%
    18:00 +7°C° 0 mm 3 mps 740 mmHg 43%
    19:00 +6°C° 0 mm 2 mps 740 mmHg 47%
    20:00 +5°C° 0 mm 2 mps 741 mmHg 51%
    21:00 +5°C° 0 mm 2 mps 741 mmHg 53%
    22:00 +4°C° 0 mm 2 mps 741 mmHg 55%
    23:00 +4°C° 0 mm 2 mps 741 mmHg 56%

    3 April, Friday

    Time Temperature Precipitation Wind Pressure Humidity
    00:00 +3°C° 0 mm 2 mps 741 mmHg 57%
    01:00 +2°C° 0 mm 3 mps 741 mmHg 57%
    02:00 +2°C° 0 mm 3 mps 741 mmHg 58%
    03:00 +2°C° 0 mm 3 mps 741 mmHg 59%
    04:00 +1°C° 0 mm 3 mps 741 mmHg 60%
    05:00 +1°C° 0 mm 3 mps 741 mmHg 61%
    06:00 +2°C° 0 mm 3 mps 741 mmHg 57%
    07:00 +3°C° 0 mm 3 mps 741 mmHg 54%
    08:00 +5°C° 0 mm 3 mps 741 mmHg 51%
    09:00 +6°C° 0 mm 4 mps 741 mmHg 46%
    10:00 +8°C° 0 mm 4 mps 741 mmHg 42%
    11:00 +10°C° 0 mm 4 mps 741 mmHg 37%
    12:00 +11°C° 0 mm 4 mps 741 mmHg 36%
    13:00 +11°C° 0 mm 4 mps 741 mmHg 35%
    14:00 +12°C° 0 mm 4 mps 741 mmHg 34%
    15:00 +12°C° 0 mm 4 mps 740 mmHg 36%
    16:00 +11°C° 0 mm 4 mps 740 mmHg 38%
    17:00 +11°C° 0 mm 4 mps 740 mmHg 40%
    18:00 +10°C° 0 mm 3 mps 740 mmHg 46%
    19:00 +8°C° 0 mm 3 mps 740 mmHg 52%
    20:00 +7°C° 0 mm 2 mps 741 mmHg 58%
    21:00 +7°C° 0 mm 2 mps 741 mmHg 60%
    22:00 +6°C° 0 mm 2 mps 741 mmHg 63%
    23:00 +5°C° 0 mm 3 mps 741 mmHg 66%
    Show more